Weather History for Jamestown, NY

Change the Weather History Date:

Saturday, October 19, 2013

  Actual Average Record
Temperature  
Mean Temperature 46 °F -  
Max Temperature 53 °F 57 °F 76 °F (1961)
Min Temperature 39 °F 32 °F 19 °F (1974)
Degree Days  
Heating Degree Days 19    
Moisture  
Dew Point 38 °F    
Average Humidity 74    
Maximum Humidity 87    
Minimum Humidity 58    
Precipitation  
Precipitation 0.16 in - - ()
Sea Level Pressure  
Sea Level Pressure 29.80 in    
Wind  
Wind Speed 9 mph (SSW)    
Max Wind Speed 20 mph    
Max Gust Speed 33 mph    
Visibility 10 miles    
Events      
Averages and records for this station are not official NWS values.
T = Trace of Precipitation, MM = Missing Value Source: NWS Daily Summary

Daily Weather History Graph

Daily Weather History Graph

Search for Another Location

Airport:

Trip Planner

Search our weather history database for the weather conditions in past years. The results will help you decide how hot, cold, wet, or windy it might be!

Date:

Astronomy

Oct. 19, 2013 Rise Set
Actual Time 7:34 AM EDT 6:28 PM EDT
Civil Twilight 7:06 AM EDT 6:56 PM EDT
Nautical Twilight 6:33 AM EDT 7:29 PM EDT
Astronomical Twilight 6:01 AM EDT 8:01 PM EDT
Moon 6:54 PM EDT (10/19) 8:11 AM EDT (10/19)
Length of Visible Light 11h 50m
Length of Day
10h 54m
Waxing Gibbous, 99% of the Moon is Illuminated
Oct 19
Waxing Gibbous
Oct 26
Last Quarter
Nov 3
New
Nov 10
First Quarter
Nov 17
Full

Hourly Weather History & Observations

Time (EDT) Temp. Windchill Dew Point Humidity Pressure Visibility Wind Dir Wind Speed Gust Speed Precip Events Conditions
12:15 AM 48.2 °F - 37.4 °F 66% 29.92 in 10.0 mi South 8.1 mph - N/A   Overcast
12:35 AM 48.2 °F - 37.4 °F 66% 29.92 in 10.0 mi SSW 6.9 mph - N/A   Scattered Clouds
12:55 AM 48.2 °F - 37.4 °F 66% 29.92 in 10.0 mi SSW 5.8 mph - N/A   Scattered Clouds
1:15 AM 48.2 °F - 37.4 °F 66% 29.91 in 10.0 mi SSW 6.9 mph - N/A   Scattered Clouds
1:35 AM 48.2 °F - 37.4 °F 66% 29.91 in 10.0 mi SSW 8.1 mph - N/A   Scattered Clouds
1:55 AM 48.2 °F - 37.4 °F 66% 29.91 in 10.0 mi SSW 6.9 mph - N/A   Clear
2:15 AM 46.4 °F 41.9 °F 37.4 °F 71% 29.91 in 10.0 mi SSW 9.2 mph - N/A   Clear
2:35 AM 46.4 °F 41.9 °F 37.4 °F 71% 29.90 in 10.0 mi SSW 9.2 mph - N/A   Clear
2:55 AM 46.4 °F 41.9 °F 37.4 °F 71% 29.90 in 10.0 mi SSW 9.2 mph - N/A   Clear
3:15 AM 46.4 °F 42.4 °F 37.4 °F 71% 29.90 in 10.0 mi SSW 8.1 mph - N/A   Clear
3:35 AM 46.4 °F 41.5 °F 37.4 °F 71% 29.89 in 10.0 mi SSW 10.4 mph - N/A   Clear
3:55 AM 46.4 °F 43.5 °F 37.4 °F 71% 29.89 in 10.0 mi SSW 5.8 mph - N/A   Clear
4:15 AM 46.4 °F 43.5 °F 37.4 °F 71% 29.89 in 10.0 mi South 5.8 mph - N/A   Clear
4:35 AM 44.6 °F 41.4 °F 37.4 °F 76% 29.88 in 10.0 mi South 5.8 mph - N/A   Clear
4:55 AM 42.8 °F 38.6 °F 37.4 °F 81% 29.88 in 10.0 mi South 6.9 mph - N/A   Clear
5:15 AM 44.6 °F 40.7 °F 37.4 °F 76% 29.87 in 10.0 mi South 6.9 mph - N/A   Clear
5:35 AM 42.8 °F 39.3 °F 37.4 °F 81% 29.87 in 10.0 mi South 5.8 mph - N/A   Clear
5:55 AM 42.8 °F 39.3 °F 37.4 °F 81% 29.87 in 10.0 mi South 5.8 mph - N/A   Clear
6:15 AM 44.6 °F 40.2 °F 37.4 °F 76% 29.87 in 10.0 mi SSW 8.1 mph - N/A   Clear
6:35 AM 44.6 °F 40.2 °F 37.4 °F 76% 29.87 in 10.0 mi SSW 8.1 mph - N/A   Clear
6:55 AM 44.6 °F 41.4 °F 37.4 °F 76% 29.86 in 10.0 mi SSW 5.8 mph - N/A   Clear
7:15 AM 44.6 °F 40.7 °F 37.4 °F 76% 29.85 in 10.0 mi South 6.9 mph - N/A   Clear
7:35 AM 44.6 °F 41.4 °F 37.4 °F 76% 29.85 in 10.0 mi South 5.8 mph - N/A   Clear
7:55 AM 42.8 °F 38.6 °F 37.4 °F 81% 29.85 in 10.0 mi South 6.9 mph - N/A   Clear
8:15 AM 44.6 °F 40.7 °F 37.4 °F 76% 29.85 in 10.0 mi South 6.9 mph - N/A   Clear
8:35 AM 44.6 °F 40.7 °F 37.4 °F 76% 29.84 in 10.0 mi South 6.9 mph - N/A   Scattered Clouds
8:55 AM 44.6 °F 40.2 °F 39.2 °F 81% 29.85 in 10.0 mi South 8.1 mph - N/A   Mostly Cloudy
9:15 AM 46.4 °F 43.5 °F 39.2 °F 76% 29.84 in 10.0 mi South 5.8 mph - N/A   Scattered Clouds
9:35 AM 46.4 °F 42.4 °F 39.2 °F 76% 29.84 in 10.0 mi South 8.1 mph - N/A   Mostly Cloudy
9:55 AM 46.4 °F 41.9 °F 39.2 °F 76% 29.84 in 10.0 mi South 9.2 mph - N/A   Overcast
10:15 AM 48.2 °F - 39.2 °F 71% 29.83 in 10.0 mi South 11.5 mph - N/A   Overcast
10:35 AM 48.2 °F - 39.2 °F 71% 29.83 in 10.0 mi South 10.4 mph - N/A   Scattered Clouds
10:55 AM 48.2 °F - 39.2 °F 71% 29.82 in 10.0 mi South 6.9 mph - N/A   Mostly Cloudy
11:15 AM 50.0 °F - 39.2 °F 66% 29.81 in 10.0 mi South 6.9 mph - N/A   Mostly Cloudy
11:35 AM 51.8 °F - 39.2 °F 62% 29.80 in 10.0 mi South 8.1 mph - N/A   Mostly Cloudy
11:55 AM 51.8 °F - 39.2 °F 62% 29.79 in 10.0 mi South 9.2 mph 16.1 mph N/A   Overcast
12:15 PM 51.8 °F - 39.2 °F 62% 29.78 in 10.0 mi South 12.7 mph 20.7 mph N/A   Overcast
12:35 PM 51.8 °F - 39.2 °F 62% 29.77 in 10.0 mi South 10.4 mph - N/A   Overcast
12:55 PM 53.6 °F - 39.2 °F 58% 29.76 in 10.0 mi South 15.0 mph 18.4 mph N/A   Overcast
1:15 PM 53.6 °F - 39.2 °F 58% 29.76 in 10.0 mi South 9.2 mph 16.1 mph N/A   Overcast
1:35 PM 53.6 °F - 39.2 °F 58% 29.74 in 10.0 mi South 11.5 mph 18.4 mph N/A   Overcast
1:55 PM 53.6 °F - 39.2 °F 58% 29.72 in 10.0 mi South 12.7 mph 17.3 mph N/A   Overcast
2:15 PM 53.6 °F - 39.2 °F 58% 29.72 in 10.0 mi South 12.7 mph 19.6 mph N/A   Mostly Cloudy
2:35 PM 53.6 °F - 39.2 °F 58% 29.72 in 10.0 mi South 15.0 mph 19.6 mph N/A   Overcast
2:55 PM 53.6 °F - 39.2 °F 58% 29.70 in 10.0 mi SSW 12.7 mph - N/A   Mostly Cloudy
3:15 PM 53.6 °F - 39.2 °F 58% 29.69 in 10.0 mi South 9.2 mph 16.1 mph N/A   Overcast
3:35 PM 51.8 °F - 37.4 °F 58% 29.69 in 10.0 mi South 12.7 mph 20.7 mph N/A   Overcast
3:55 PM 51.8 °F - 39.2 °F 62% 29.69 in 10.0 mi SSW 11.5 mph 16.1 mph N/A   Overcast
4:15 PM 51.8 °F - 39.2 °F 62% 29.69 in 10.0 mi South 9.2 mph 20.7 mph N/A   Overcast
4:35 PM 48.2 °F - 39.2 °F 71% 29.68 in 10.0 mi South 15.0 mph 20.7 mph N/A   Overcast
4:55 PM 48.2 °F - 41.0 °F 76% 29.68 in 10.0 mi SSW 11.5 mph - N/A   Overcast
5:15 PM 48.2 °F - 41.0 °F 76% 29.68 in 10.0 mi South 8.1 mph - N/A   Overcast
5:35 PM 46.4 °F 41.1 °F 42.8 °F 87% 29.68 in 7.0 mi SSW 11.5 mph - N/A   Overcast
5:55 PM 46.4 °F 42.4 °F 42.8 °F 87% 29.67 in 7.0 mi South 8.1 mph 16.1 mph 0.01 in   Overcast
6:15 PM 46.4 °F 43.5 °F 42.8 °F 87% 29.67 in 7.0 mi SSW 5.8 mph - 0.01 in   Overcast
6:35 PM 44.6 °F 36.6 °F 41.0 °F 87% 29.70 in 8.0 mi West 19.6 mph 33.4 mph 0.05 in   Overcast
6:55 PM 44.6 °F 37.8 °F 39.2 °F 81% 29.71 in 9.0 mi WSW 15.0 mph 28.8 mph 0.06 in   Overcast
7:15 PM 42.8 °F 36.2 °F 39.2 °F 87% 29.72 in 10.0 mi WSW 12.7 mph 23.0 mph 0.01 in   Overcast
7:35 PM 42.8 °F 35.1 °F 39.2 °F 87% 29.72 in 10.0 mi WSW 16.1 mph - 0.01 in   Overcast
7:55 PM 42.8 °F 35.1 °F 39.2 °F 87% 29.73 in 10.0 mi West 16.1 mph 20.7 mph 0.01 in   Overcast
8:15 PM 42.8 °F 36.2 °F 39.2 °F 87% 29.74 in 8.0 mi WSW 12.7 mph - N/A   Overcast
8:35 PM 42.8 °F 36.2 °F 39.2 °F 87% 29.75 in 10.0 mi WSW 12.7 mph 17.3 mph N/A   Overcast
8:55 PM 42.8 °F 36.6 °F 39.2 °F 87% 29.76 in 10.0 mi WSW 11.5 mph - N/A   Overcast
9:15 PM 42.8 °F 34.8 °F 39.2 °F 87% 29.78 in 9.0 mi West 17.3 mph 24.2 mph 0.02 in   Overcast
9:35 PM 42.8 °F 36.2 °F 37.4 °F 81% 29.78 in 8.0 mi WSW 12.7 mph 16.1 mph 0.05 in   Overcast
9:55 PM 41.0 °F 34.7 °F 37.4 °F 87% 29.78 in 9.0 mi SW 10.4 mph 17.3 mph 0.08 in   Overcast
10:15 PM 41.0 °F 35.8 °F 37.4 °F 87% 29.79 in 9.0 mi SW 8.1 mph 20.7 mph N/A   Overcast
10:35 PM 41.0 °F 33.1 °F 35.6 °F 81% 29.80 in 10.0 mi SW 15.0 mph 20.7 mph N/A   Overcast
10:55 PM 39.2 °F 30.8 °F 35.6 °F 87% 29.80 in 9.0 mi SW 15.0 mph 19.6 mph N/A   Overcast
11:15 PM 39.2 °F 31.6 °F 35.6 °F 87% 29.80 in 10.0 mi SW 12.7 mph 19.6 mph N/A   Mostly Cloudy
11:35 PM 39.2 °F 32.5 °F 35.6 °F 87% 29.81 in 10.0 mi SW 10.4 mph - N/A   Overcast
11:55 PM 39.2 °F 31.6 °F 35.6 °F 87% 29.81 in 10.0 mi SW 12.7 mph - N/A   Overcast